Regional Weather Roundup
Issued by NWS

Home | Current Version | Previous Version | Graphics & Text | Print | Product List | Glossary On
Versions: 1 2 3 4 5 6 7 8 9 10 11 12 13 14 15 16 17 18 19 20 21 22 23 24 25 26 27 28 29 30 31 32 33 34 35 36 37 38 39 40 41 42 43 44 45 46 47 48 49 50
000
ASUS43 KBIS 031510
RWRND

NORTH DAKOTA REGIONAL WEATHER ROUNDUP
NATIONAL WEATHER SERVICE BISMARCK ND
1000 AM CDT WED JUN 03 2015

NOTE: "FAIR" INDICATES FEW OR NO CLOUDS BELOW 12,000 FEET WITH NO
SIGNIFICANT WEATHER AND/OR OBSTRUCTIONS TO VISIBILITY.


NDZ001>003-009>011-017-031600-
NORTHWEST NORTH DAKOTA

CITY           SKY/WX    TMP DP  RH WIND       PRES   REMARKS
WILLISTON      SUNNY     58  46  64 VRB5      30.03S
MINOT          CLOUDY    53  43  68 N12       30.00R
MINOT AFB      CLOUDY    53  49  86 N12       30.00R
$$

NDZ018>021-031>035-040>046-031600-
SOUTHWEST NORTH DAKOTA

CITY           SKY/WX    TMP DP  RH WIND       PRES   REMARKS
BISMARCK       CLOUDY    53  43  68 N14G21    29.99R
DICKINSON      CLOUDY    52  44  74 NE10      30.02R
GARRISON         N/A     56  41  57 NE15      29.99S
HETTINGER ARPT CLOUDY    54  47  77 N14       30.03R
$$

NDZ004>008-012>016-024-026-027-054-031600-
NORTHEAST NORTH DAKOTA

CITY           SKY/WX    TMP DP  RH WIND       PRES   REMARKS
GRAND FORKS    CLOUDY    54  48  80 N18       29.82S
GRND FRKS AFB  CLOUDY    53  46  77 N14       29.84R
DEVILS LAKE    CLOUDY    54  41  62 N16G22    29.90R
$$

NDZ022-023-025-028>030-036>039-047>053-031600-
SOUTHEAST NORTH DAKOTA

CITY           SKY/WX    TMP DP  RH WIND       PRES   REMARKS
FARGO          CLOUDY    59  55  87 NW15      29.79R
JAMESTOWN      CLOUDY    53  48  83 N17G25    29.88S
$$



USA.gov is the U.S. government's official web portal to all federal, state and local government web resources and services.